SR8WXB-1 Weather Reports


Display with metric or nautical units.
time (UTC)temp
F
wind
direction
speed
MPH
gust
MPH
rain 1hr
in
rain 24hr
in
rain mn
in
humidity
%
barometer
mb
20260506104636 66 247 38.0 49.0 0.00 0.00 0.00 100 938.6
20260506104233 66 246 44.0 62.0 0.00 0.00 0.00 100 938.8
20260506103834 67 245 31.0 47.0 0.00 0.00 0.00 100 938.8
20260506103434 67 247 32.0 43.0 0.00 0.00 0.00 100 938.9
20260506103034 66 248 30.0 38.0 0.00 0.00 0.00 100 938.9
20260506102634 66 247 30.0 42.0 0.00 0.00 0.00 100 939.0
20260506102220 66 243 27.0 46.0 0.00 0.00 0.00 100 938.9
20260506101819 66 244 29.0 42.0 0.00 0.00 0.00 100 938.9
20260506101020 65 246 36.0 54.0 0.00 0.00 0.00 100 938.9
20260506100620 65 248 30.0 41.0 0.00 0.00 0.00 100 938.8
20260506100217 65 248 36.0 47.0 0.00 0.00 0.00 100 938.9
20260506095817 65 249 31.0 41.0 0.00 0.00 0.00 100 938.9
20260506095417 65 246 25.0 35.0 0.00 0.00 0.00 100 938.9
20260506095017 65 247 27.0 40.0 0.00 0.00 0.00 100 938.9
20260506094617 66 247 32.0 42.0 0.00 0.00 0.00 100 938.9
20260506094214 66 244 28.0 40.0 0.00 0.00 0.00 100 938.9
20260506093813 67 248 24.0 29.0 0.00 0.00 0.00 100 938.9
20260506093414 67 248 27.0 33.0 0.00 0.00 0.00 100 939.0
20260506093014 67 250 32.0 39.0 0.00 0.00 0.00 100 938.9
20260506092610 66 248 31.0 38.0 0.00 0.00 0.00 100 938.9
20260506092208 66 250 29.0 35.0 0.00 0.00 0.00 100 938.9
20260506091808 67 250 33.0 46.0 0.00 0.00 0.00 100 938.9
20260506091408 67 245 36.0 53.0 0.00 0.00 0.00 100 938.8
20260506091008 67 254 30.0 43.0 0.00 0.00 0.00 100 938.7
20260506090608 67 247 28.0 37.0 0.00 0.00 0.00 100 938.8
20260506090205 67 244 27.0 40.0 0.00 0.00 0.00 100 938.8
20260506085805 66 243 23.0 34.0 0.00 0.00 0.00 100 938.8
20260506085405 66 248 28.0 41.0 0.00 0.00 0.00 100 938.7
20260506085005 66 248 27.0 42.0 0.00 0.00 0.00 100 938.8
20260506084605 66 243 25.0 45.0 0.00 0.00 0.00 100 938.7
20260506084202 65 242 25.0 36.0 0.00 0.00 0.00 100 938.8
20260506083802 65 243 24.0 31.0 0.00 0.00 0.00 100 938.7
20260506083402 64 243 23.0 32.0 0.00 0.00 0.00 100 938.7
20260506083002 64 241 22.0 28.0 0.00 0.00 0.00 100 938.7
20260506082602 64 244 23.0 33.0 0.00 0.00 0.00 100 938.6
20260506082159 64 245 26.0 42.0 0.00 0.00 0.00 100 938.7
20260506081759 65 242 23.0 32.0 0.00 0.00 0.00 100 938.5
20260506081359 65 242 22.0 29.0 0.00 0.00 0.00 100 938.6
20260506081000 64 243 23.0 30.0 0.00 0.00 0.00 100 938.5
20260506080559 64 244 27.0 36.0 0.00 0.00 0.00 100 938.5
20260506080156 64 243 21.0 29.0 0.00 0.00 0.00 100 938.5
20260506072945 65 239 21.0 31.0 0.00 0.00 0.00 100 938.3
20260506072545 64 239 17.0 26.0 0.00 0.00 0.00 100 938.3
20260506072138 64 238 20.0 27.0 0.00 0.00 0.00 100 938.3
20260506071738 65 242 23.0 30.0 0.00 0.00 0.00 100 938.3
20260506071338 64 242 20.0 27.0 0.00 0.00 0.00 100 938.3
20260506070938 64 241 20.0 30.0 0.00 0.00 0.00 100 938.3
20260506070538 64 242 20.0 28.0 0.00 0.00 0.00 100 938.3
20260506070135 64 241 19.0 28.0 0.00 0.00 0.00 100 938.2
20260506062130 62 239 16.0 23.0 0.00 0.00 0.00 100 938.2
20260506061730 62 243 20.0 29.0 0.00 0.00 0.00 100 938.1
20260506061330 62 243 19.0 28.0 0.00 0.00 0.00 100 938.1
20260506060930 62 243 18.0 25.0 0.00 0.00 0.00 100 938.1
20260506060530 62 240 18.0 28.0 0.00 0.00 0.00 100 938.1
20260506060127 62 240 19.0 27.0 0.00 0.00 0.00 100 938.1
20260506051318 60 239 13.0 20.0 0.00 0.00 0.00 100 938.1
20260506050906 60 233 12.0 18.0 0.00 0.00 0.00 100 938.0
20260506050507 59 232 10.0 16.0 0.00 0.00 0.00 100 938.0
20260506050104 59 231 11.0 18.0 0.00 0.00 0.00 100 938.1
20260506044904 58 231 9.0 15.0 0.00 0.00 0.00 100 938.1
20260506044504 58 230 8.0 14.0 0.00 0.00 0.00 100 938.0
20260506044101 58 228 11.0 14.0 0.00 0.00 0.00 100 938.0
20260506043701 58 229 11.0 14.0 0.00 0.00 0.00 100 938.0
20260506043301 58 227 10.0 13.0 0.00 0.00 0.00 100 938.0
20260506042901 58 227 12.0 15.0 0.00 0.00 0.00 100 938.0
20260506042501 58 228 16.0 18.0 0.00 0.00 0.00 100 938.0
20260506042058 58 229 16.0 19.0 0.00 0.00 0.00 100 938.0
20260506041658 58 230 16.0 21.0 0.00 0.00 0.00 100 938.0
20260506041258 58 231 15.0 17.0 0.00 0.00 0.00 100 938.0
20260506040858 57 230 16.0 19.0 0.00 0.00 0.00 100 938.0
20260506040458 57 230 17.0 20.0 0.00 0.00 0.00 100 938.0
20260506040055 57 230 15.0 20.0 0.00 0.00 0.00 100 938.0
20260506035656 57 230 17.0 19.0 0.00 0.00 0.00 100 938.0
20260506035256 58 234 17.0 20.0 0.00 0.00 0.00 100 938.0
20260506034456 58 240 18.0 20.0 0.00 0.00 0.00 100 938.0
20260506034053 58 239 18.0 21.0 0.00 0.00 0.00 100 938.0
20260506033652 58 237 19.0 23.0 0.00 0.00 0.00 100 938.0
20260506033252 58 230 20.0 25.0 0.00 0.00 0.00 100 937.9
20260506032852 57 231 19.0 22.0 0.00 0.00 0.00 100 937.9
20260506032452 57 231 18.0 24.0 0.00 0.00 0.00 100 937.9
20260506032049 57 232 18.0 21.0 0.00 0.00 0.00 100 938.0
20260506031650 56 221 16.0 18.0 0.00 0.00 0.00 100 937.9
20260506031246 56 221 16.0 18.0 0.00 0.00 0.00 100 938.0
20260506030846 56 221 16.0 18.0 0.00 0.00 0.00 100 938.0
20260506030446 57 221 12.0 16.0 0.00 0.00 0.00 100 937.9
20260506030043 57 226 14.0 18.0 0.00 0.00 0.00 100 937.9
20260506025643 57 227 12.0 16.0 0.00 0.00 0.00 100 937.9
20260506025243 57 225 12.0 15.0 0.00 0.00 0.00 100 937.9
20260506024843 57 222 10.0 15.0 0.00 0.00 0.00 100 937.9
20260506024444 57 228 12.0 14.0 0.00 0.00 0.00 100 937.8
20260506024041 57 227 12.0 17.0 0.00 0.00 0.00 100 937.9
20260506023641 58 235 13.0 15.0 0.00 0.00 0.00 100 937.9
20260506023232 58 233 16.0 19.0 0.00 0.00 0.00 100 937.9
20260506022832 58 236 14.0 18.0 0.00 0.00 0.00 100 937.9
20260506022432 59 237 14.0 21.0 0.00 0.00 0.00 100 937.9
20260506022029 59 236 13.0 19.0 0.00 0.00 0.00 100 937.9
20260506021629 59 235 14.0 19.0 0.00 0.00 0.00 100 937.9
20260506021229 58 237 14.0 20.0 0.00 0.00 0.00 100 937.9
20260506020829 58 237 12.0 22.0 0.00 0.00 0.00 100 937.9
20260506020430 58 233 16.0 23.0 0.00 0.00 0.00 100 937.9
20260506020027 58 234 20.0 22.0 0.00 0.00 0.00 100 937.9
20260506015627 59 234 16.0 20.0 0.00 0.00 0.00 100 937.9
20260506015227 59 235 13.0 19.0 0.00 0.00 0.00 100 938.0
20260506014827 59 236 13.0 18.0 0.00 0.00 0.00 100 937.9
20260506014427 59 233 13.0 21.0 0.00 0.00 0.00 100 937.9
20260506014024 59 236 12.0 18.0 0.00 0.00 0.00 100 938.0
20260506013624 59 235 12.0 17.0 0.00 0.00 0.00 100 938.0
20260506013224 60 236 15.0 20.0 0.00 0.00 0.00 100 938.0
20260506012824 60 236 13.0 21.0 0.00 0.00 0.00 100 938.0
20260506012424 60 238 14.0 19.0 0.00 0.00 0.00 100 938.0
20260506012021 60 238 13.0 17.0 0.00 0.00 0.00 100 937.9
20260506011621 60 238 12.0 15.0 0.00 0.00 0.00 100 937.9
20260506011221 60 240 13.0 18.0 0.00 0.00 0.00 100 937.9
20260506010818 60 237 11.0 14.0 0.00 0.00 0.00 100 938.0
20260506010418 60 237 13.0 17.0 0.00 0.00 0.00 100 938.0
20260506010015 60 237 11.0 15.0 0.00 0.00 0.00 100 938.0
20260506005615 60 237 13.0 20.0 0.00 0.00 0.00 100 938.0
20260506005215 60 237 10.0 17.0 0.00 0.00 0.00 100 938.0
20260506004815 60 238 10.0 13.0 0.00 0.00 0.00 100 938.0
20260506004415 60 237 11.0 19.0 0.00 0.00 0.00 100 938.0
20260506004012 60 236 12.0 16.0 0.00 0.00 0.00 100 938.0
20260506003612 60 236 12.0 18.0 0.00 0.00 0.00 100 938.0
20260506003212 61 237 10.0 14.0 0.00 0.00 0.00 100 937.9
20260506002812 61 236 9.0 12.0 0.00 0.00 0.00 100 937.9
20260506002412 61 237 12.0 18.0 0.00 0.00 0.00 100 937.9
20260506002009 61 237 12.0 19.0 0.00 0.00 0.00 100 937.9
20260506001609 61 236 11.0 20.0 0.00 0.00 0.00 100 937.9
20260506001209 61 237 12.0 18.0 0.00 0.00 0.00 100 937.9
20260506000809 61 237 11.0 19.0 0.00 0.00 0.00 100 937.9
20260506000409 61 238 11.0 13.0 0.00 0.00 0.00 100 937.9
20260505235955 61 238 11.0 16.0 0.00 0.00 0.00 100 938.0
20260505235555 60 236 10.0 13.0 0.00 0.00 0.00 100 938.0
20260505234755 60 236 11.0 17.0 0.00 0.00 0.00 100 938.0
20260505234355 60 236 11.0 15.0 0.00 0.00 0.00 100 938.0
20260505233952 60 235 11.0 16.0 0.00 0.00 0.00 100 938.1
20260505233552 60 235 10.0 17.0 0.00 0.00 0.00 100 938.1
20260505233153 60 236 10.0 14.0 0.00 0.00 0.00 100 938.2
20260505232753 60 233 9.0 13.0 0.00 0.00 0.00 100 938.2
20260505232353 60 234 10.0 16.0 0.00 0.00 0.00 100 938.2
20260505231950 60 235 9.0 12.0 0.00 0.00 0.00 100 938.3
20260505231549 61 237 9.0 13.0 0.00 0.00 0.00 100 938.3
20260505231149 61 236 10.0 18.0 0.00 0.00 0.00 100 938.3
20260505230749 61 237 9.0 13.0 0.00 0.00 0.00 100 938.3
20260505230346 61 237 10.0 13.0 0.00 0.00 0.00 100 938.4
20260505225943 61 238 8.0 11.0 0.00 0.00 0.00 100 938.4
20260505225543 61 236 9.0 16.0 0.00 0.00 0.00 100 938.4
20260505225143 61 235 12.0 19.0 0.00 0.00 0.00 100 938.5
20260505224743 61 236 11.0 15.0 0.00 0.00 0.00 100 938.5
20260505224344 61 236 11.0 17.0 0.00 0.00 0.00 100 938.5
20260505223941 61 236 10.0 13.0 0.00 0.00 0.00 100 938.5
20260505223541 61 236 10.0 14.0 0.00 0.00 0.00 100 938.6
20260505223141 61 237 10.0 14.0 0.00 0.00 0.00 100 938.6
20260505222741 61 237 10.0 12.0 0.00 0.00 0.00 100 938.6
20260505222341 61 234 9.0 11.0 0.00 0.00 0.00 100 938.7
20260505221938 62 236 11.0 16.0 0.00 0.00 0.00 100 938.7
20260505221538 62 238 11.0 13.0 0.00 0.00 0.00 100 938.7
20260505221138 62 236 11.0 15.0 0.00 0.00 0.00 100 938.7
20260505220738 62 236 10.0 12.0 0.00 0.00 0.00 100 938.7
20260505220338 62 233 10.0 11.0 0.00 0.00 0.00 100 938.7
20260505215936 62 234 10.0 15.0 0.00 0.00 0.00 100 938.7
20260505215535 62 232 10.0 15.0 0.00 0.00 0.00 100 938.7
20260505215135 62 232 9.0 11.0 0.00 0.00 0.00 100 938.7
20260505214735 63 230 10.0 13.0 0.00 0.00 0.00 100 938.8
20260505214335 63 228 11.0 14.0 0.00 0.00 0.00 100 938.8
20260505213932 63 228 10.0 17.0 0.00 0.00 0.00 100 938.8
20260505213532 63 227 11.0 16.0 0.00 0.00 0.00 100 938.8
20260505213132 63 228 12.0 16.0 0.00 0.00 0.00 100 938.8
20260505212732 63 232 10.0 15.0 0.00 0.00 0.00 100 938.8
20260505212323 63 233 12.0 18.0 0.00 0.00 0.00 100 938.8
20260505211920 64 236 12.0 17.0 0.00 0.00 0.00 100 938.8
20260505211520 64 235 14.0 19.0 0.00 0.00 0.00 100 938.9
20260505210721 64 236 13.0 17.0 0.00 0.00 0.00 100 938.9
20260505210321 64 236 15.0 24.0 0.00 0.00 0.00 100 938.9
20260505205914 64 235 15.0 21.0 0.00 0.00 0.00 100 938.9
20260505205514 64 236 14.0 18.0 0.00 0.00 0.00 100 938.9
20260505205114 64 235 14.0 22.0 0.00 0.00 0.00 100 938.9
20260505204714 64 235 14.0 20.0 0.00 0.00 0.00 100 938.9
20260505204314 64 237 14.0 18.0 0.00 0.00 0.00 100 938.9
20260505203911 64 235 14.0 21.0 0.00 0.00 0.00 100 938.9
20260505203511 64 235 14.0 19.0 0.00 0.00 0.00 100 938.9
20260505203111 64 235 13.0 21.0 0.00 0.00 0.00 100 938.9
20260505202711 64 237 16.0 22.0 0.00 0.00 0.00 100 938.9
20260505202311 64 236 15.0 24.0 0.00 0.00 0.00 100 938.9
20260505201908 64 237 15.0 24.0 0.00 0.00 0.00 100 938.9
20260505201508 64 237 15.0 22.0 0.00 0.00 0.00 100 938.9
20260505201108 64 238 18.0 25.0 0.00 0.00 0.00 100 938.9
20260505200709 64 234 15.0 21.0 0.00 0.00 0.00 100 938.9
20260505200308 64 236 14.0 21.0 0.00 0.00 0.00 100 938.9
20260505195906 64 237 15.0 21.0 0.00 0.00 0.00 100 938.9
20260505195506 64 236 13.0 22.0 0.00 0.00 0.00 100 938.9
20260505195106 64 235 16.0 22.0 0.00 0.00 0.00 100 938.9
20260505194706 64 236 14.0 18.0 0.00 0.00 0.00 100 938.9
20260505194306 64 237 15.0 22.0 0.00 0.00 0.00 100 938.9
20260505193903 64 237 14.0 19.0 0.00 0.00 0.00 100 938.9
20260505193503 64 235 13.0 19.0 0.00 0.00 0.00 100 938.9
20260505193103 64 236 14.0 20.0 0.00 0.00 0.00 100 938.9
20260505192703 64 236 12.0 17.0 0.00 0.00 0.00 100 938.9
20260505192305 64 237 14.0 20.0 0.00 0.00 0.00 100 938.9
20260505191900 64 236 17.0 22.0 0.00 0.00 0.00 100 938.9
20260505191500 64 237 19.0 22.0 0.00 0.00 0.00 100 938.9
20260505191100 64 237 19.0 22.0 0.00 0.00 0.00 100 938.9
20260505190700 64 235 20.0 24.0 0.00 0.00 0.00 100 938.9
20260505190300 64 235 19.0 23.0 0.00 0.00 0.00 100 938.9
20260505185857 64 236 19.0 23.0 0.00 0.00 0.00 100 938.9
20260505185454 64 233 19.0 23.0 0.00 0.00 0.00 100 938.9
20260505185054 64 233 21.0 24.0 0.00 0.00 0.00 100 938.9
20260505184642 64 235 20.0 25.0 0.00 0.00 0.00 100 938.9
20260505184242 64 236 21.0 23.0 0.00 0.00 0.00 100 938.8
20260505183839 64 234 20.0 23.0 0.00 0.00 0.00 100 938.9
20260505183439 64 234 22.0 26.0 0.00 0.00 0.00 100 938.8
20260505183040 64 234 21.0 25.0 0.00 0.00 0.00 100 938.8
20260505182640 65 236 21.0 26.0 0.00 0.00 0.00 100 938.8
20260505182240 65 237 22.0 25.0 0.00 0.00 0.00 100 938.8
20260505181837 65 237 19.0 25.0 0.00 0.00 0.00 100 938.8
20260505181437 65 237 22.0 30.0 0.00 0.00 0.00 100 938.8
20260505181037 65 237 22.0 27.0 0.00 0.00 0.00 100 938.8
20260505180637 65 236 19.0 28.0 0.00 0.00 0.00 100 938.8
20260505180237 65 235 18.0 24.0 0.00 0.00 0.00 100 938.9
20260505175834 65 235 21.0 27.0 0.00 0.00 0.00 100 938.9
20260505175434 66 237 21.0 26.0 0.00 0.00 0.00 100 938.8
20260505175034 66 237 23.0 28.0 0.00 0.00 0.00 100 938.9
20260505174634 66 239 23.0 28.0 0.00 0.00 0.00 100 938.9
20260505174234 66 240 22.0 33.0 0.00 0.00 0.00 100 938.9
20260505173831 66 236 22.0 26.0 0.00 0.00 0.00 100 938.9
20260505173431 66 237 21.0 24.0 0.00 0.00 0.00 100 938.9
20260505173031 66 240 22.0 27.0 0.00 0.00 0.00 100 938.9
20260505171829 67 240 24.0 28.0 0.00 0.00 0.00 100 938.9
20260505171428 67 240 24.0 30.0 0.00 0.00 0.00 100 938.9
20260505171028 67 238 27.0 33.0 0.00 0.00 0.00 100 938.9
20260505170628 67 241 24.0 30.0 0.00 0.00 0.00 100 938.9
20260505170228 67 238 23.0 31.0 0.00 0.00 0.00 100 938.9
20260505165825 67 240 26.0 34.0 0.00 0.00 0.00 100 938.9
20260505165426 67 243 24.0 29.0 0.00 0.00 0.00 100 938.9
20260505165022 67 243 23.0 26.0 0.00 0.00 0.00 100 939.0
20260505164622 67 244 24.0 29.0 0.00 0.00 0.00 100 939.0
20260505164222 67 244 22.0 25.0 0.00 0.00 0.00 100 939.0
20260505163819 67 243 25.0 35.0 0.00 0.00 0.00 100 939.0
20260505163419 68 239 24.0 28.0 0.00 0.00 0.00 100 939.0
20260505163019 68 241 22.0 28.0 0.00 0.00 0.00 100 939.0
20260505162619 68 242 28.0 33.0 0.00 0.00 0.00 100 939.1
20260505162219 68 244 28.0 34.0 0.00 0.00 0.00 100 939.0
20260505161816 68 243 24.0 32.0 0.00 0.00 0.00 100 939.0
20260505161416 68 247 27.0 34.0 0.00 0.00 0.00 100 939.1
20260505161008 68 242 29.0 40.0 0.00 0.00 0.00 100 939.1
20260505160608 68 244 24.0 33.0 0.00 0.00 0.00 100 939.2
20260505160208 68 243 25.0 31.0 0.00 0.00 0.00 100 939.2
20260505153003 69 241 24.0 36.0 0.00 0.00 0.00 100 939.4
20260505152603 70 242 26.0 34.0 0.00 0.00 0.00 100 939.4
20260505152203 70 244 27.0 33.0 0.00 0.00 0.00 100 939.4
20260505151800 70 241 23.0 33.0 0.00 0.00 0.00 100 939.5
20260505151400 70 242 29.0 38.0 0.00 0.00 0.00 100 939.6
20260505151000 70 243 21.0 32.0 0.00 0.00 0.00 100 939.5
20260505150559 71 242 26.0 38.0 0.00 0.00 0.00 100 939.5
20260505150159 72 245 30.0 38.0 0.00 0.00 0.00 100 939.5
20260505140548 72 250 27.0 31.0 0.00 0.00 0.00 100 939.8
20260505140148 72 247 29.0 36.0 0.00 0.00 0.00 100 939.8
20260505130128 73 244 24.0 34.0 0.00 0.00 0.00 100 940.3
20260505124925 73 245 25.0 36.0 0.00 0.00 0.00 100 940.4
20260505124525 73 245 24.0 33.0 0.00 0.00 0.00 100 940.5
20260505124122 73 245 27.0 37.0 0.00 0.00 0.00 100 940.4
20260505123719 74 243 24.0 35.0 0.00 0.00 0.00 100 940.5
20260505123319 73 246 24.0 30.0 0.00 0.00 0.00 100 940.5
20260505122920 73 247 24.0 30.0 0.00 0.00 0.00 100 940.5
20260505122519 73 247 29.0 37.0 0.00 0.00 0.00 100 940.6
20260505122119 73 243 28.0 40.0 0.00 0.00 0.00 100 940.6
20260505121716 73 248 27.0 38.0 0.00 0.00 0.00 100 940.7
20260505121316 73 247 28.0 35.0 0.00 0.00 0.00 100 940.7
20260505120917 72 242 25.0 34.0 0.00 0.00 0.00 100 940.7
20260505120517 72 243 27.0 36.0 0.00 0.00 0.00 100 940.8
20260505120117 72 242 24.0 31.0 0.00 0.00 0.00 100 940.8
20260505115714 73 248 29.0 37.0 0.00 0.00 0.00 100 940.8
20260505115314 73 243 20.0 36.0 0.00 0.00 0.00 100 940.8
20260505114914 73 243 22.0 30.0 0.00 0.00 0.00 100 940.9
20260505114514 72 243 21.0 27.0 0.00 0.00 0.00 100 940.9
20260505114114 72 244 23.0 33.0 0.00 0.00 0.00 100 940.9
20260505113711 73 245 22.0 31.0 0.00 0.00 0.00 100 941.0
20260505113311 72 245 22.0 35.0 0.00 0.00 0.00 100 941.0
20260505112911 73 243 25.0 33.0 0.00 0.00 0.00 100 941.0
20260505112511 73 244 23.0 33.0 0.00 0.00 0.00 100 941.0
20260505112110 72 251 21.0 28.0 0.00 0.00 0.00 100 941.0
20260505111707 71 251 26.0 34.0 0.00 0.00 0.00 100 941.0
20260505111308 71 243 22.0 30.0 0.00 0.00 0.00 100 941.1
20260505110908 71 245 28.0 38.0 0.00 0.00 0.00 100 941.1
20260505110508 71 242 24.0 38.0 0.00 0.00 0.00 100 941.1